TimePST,TemperatureF,Dew PointF,Humidity,Sea Level PressureIn,VisibilityMPH,Wind Direction,Wind SpeedMPH,Gust SpeedMPH,PrecipitationIn,Events,Conditions,WindDirDegrees,DateUTC
12:55 AM,21.9,18.0,85,30.06,7.0,Calm,Calm,-,N/A,,Clear,0,2013-02-18 08:55:00
1:55 AM,24.1,19.0,81,30.04,8.0,Calm,Calm,-,N/A,,Clear,0,2013-02-18 09:55:00
2:55 AM,25.0,19.9,81,30.00,10.0,Calm,Calm,-,N/A,,Clear,0,2013-02-18 10:55:00
3:55 AM,24.1,19.9,84,29.99,10.0,Calm,Calm,-,N/A,,Clear,0,2013-02-18 11:55:00
4:55 AM,26.1,19.9,78,29.97,10.0,NE,4.6,-,N/A,,Clear,50,2013-02-18 12:55:00
5:55 AM,24.1,19.9,84,29.99,10.0,Calm,Calm,-,N/A,,Clear,0,2013-02-18 13:55:00
6:55 AM,27.0,18.0,69,29.99,10.0,Calm,Calm,-,N/A,,Clear,0,2013-02-18 14:55:00
7:55 AM,25.0,21.0,85,30.01,8.0,Calm,Calm,-,N/A,,Clear,0,2013-02-18 15:55:00
8:55 AM,35.1,21.0,57,29.99,10.0,Calm,Calm,-,N/A,,Clear,0,2013-02-18 16:55:00
9:55 AM,41.0,21.9,47,29.96,10.0,SE,3.5,-,N/A,,Clear,130,2013-02-18 17:55:00
10:55 AM,44.1,19.9,38,29.94,10.0,South,6.9,-,N/A,,Clear,180,2013-02-18 18:55:00
11:55 AM,46.9,19.9,34,29.91,10.0,South,6.9,-,N/A,,Partly Cloudy,190,2013-02-18 19:55:00
12:55 PM,48.0,19.9,33,29.87,10.0,Variable,4.6,-,N/A,,Partly Cloudy,0,2013-02-18 20:55:00
1:55 PM,48.0,19.9,33,29.84,10.0,West,8.1,-,N/A,,Scattered Clouds,280,2013-02-18 21:55:00
2:55 PM,46.0,23.0,40,29.83,10.0,West,11.5,-,N/A,,Scattered Clouds,280,2013-02-18 22:55:00
3:55 PM,44.1,26.1,49,29.83,10.0,West,12.7,-,N/A,,Clear,270,2013-02-18 23:55:00
4:55 PM,42.1,27.0,55,29.82,10.0,West,13.8,-,N/A,,Overcast,280,2013-02-19 00:55:00
5:55 PM,39.9,26.1,58,29.82,10.0,West,15.0,-,N/A,,Mostly Cloudy,280,2013-02-19 01:55:00
6:55 PM,37.9,27.0,65,29.81,10.0,West,11.5,-,N/A,,Overcast,270,2013-02-19 02:55:00
7:55 PM,37.0,28.0,70,29.82,10.0,West,12.7,-,N/A,,Overcast,260,2013-02-19 03:55:00
8:17 PM,33.8,30.2,87,29.77,3.0,West,16.1,-,0.00,Snow,Light Snow,270,2013-02-19 04:17:00
8:35 PM,33.8,30.2,87,29.76,8.0,West,12.7,-,0.00,Snow,Light Snow,270,2013-02-19 04:35:00
8:55 PM,33.1,30.0,89,29.79,6.0,West,11.5,-,0.00,Snow,Light Snow,270,2013-02-19 04:55:00
9:20 PM,33.8,30.2,87,29.76,2.5,West,12.7,-,0.00,Snow,Light Snow,270,2013-02-19 05:20:00
9:27 PM,33.8,30.2,87,29.76,6.0,West,10.4,-,0.00,Snow,Light Snow,270,2013-02-19 05:27:00
9:52 PM,32.0,30.2,93,29.76,1.8,West,8.1,-,0.00,Snow,Light Snow,260,2013-02-19 05:52:00
9:55 PM,32.0,30.9,96,29.77,1.5,West,8.1,-,0.00,Snow,Light Snow,260,2013-02-19 05:55:00
10:07 PM,32.0,30.2,93,29.75,3.0,West,8.1,-,0.00,Snow,Light Snow,260,2013-02-19 06:07:00
10:17 PM,32.0,30.2,93,29.74,9.0,West,9.2,-,N/A,,Overcast,270,2013-02-19 06:17:00
10:31 PM,32.0,30.2,93,29.74,1.8,West,8.1,-,0.01,Snow,Light Snow,260,2013-02-19 06:31:00
10:39 PM,32.0,30.2,93,29.74,1.0,WSW,5.8,-,0.01,Snow,Light Snow,250,2013-02-19 06:39:00
10:48 PM,32.0,30.2,93,29.74,2.0,West,5.8,-,0.01,Snow,Light Snow,260,2013-02-19 06:48:00
10:55 PM,32.0,30.9,96,29.74,5.0,West,3.5,-,0.02,Snow,Light Snow,260,2013-02-19 06:55:00
11:08 PM,32.0,30.2,93,29.74,10.0,Calm,Calm,-,0.00,,Overcast,0,2013-02-19 07:08:00
11:55 PM,32.0,30.9,96,29.72,9.0,SSE,4.6,-,0.00,,Overcast,160,2013-02-19 07:55:00